contact:dominique.lefevre@mio.osupytheas.fr, maurice.libes@osupytheas.fr, didier.mallarino@osupytheas.fr
Project:EMSO http://www.emso-fr.org/EMSO-France
Depth: 2436.0 m
Title:EMSO Ligure Ouest : Data MII capteur CSTAR
DateTime,Latitude,Longitude,Instrument_Serial,Reference_Counts,Signal_Counts,Corrected_Signal_raw_counts,Calculated_Beam_c_inverse_meters,Internal_thermistor_counts
DateTime,Latitude,Longitude,Instrument_Serial,Reference_Counts,Signal_Counts,Corrected_Signal_raw_counts,Calculated_Beam_c_inverse_meters,Internal_thermistor_counts
2019-07-17T12:00:06,42.805,6.029,CST-1368DR,8668,12127,15474,0.037,551
2019-07-17T12:03:07,42.805,6.029,CST-1368DR,8667,12124,15472,0.037,551
2019-07-17T12:06:09,42.805,6.029,CST-1368DR,8666,12119,15468,0.038,550
2019-07-17T12:09:11,42.805,6.029,CST-1368DR,8666,12124,15473,0.037,551
2019-07-17T12:12:12,42.805,6.029,CST-1368DR,8665,12125,15476,0.036,551
2019-07-17T12:15:14,42.805,6.029,CST-1368DR,8665,12123,15474,0.037,551
2019-07-17T12:18:16,42.805,6.029,CST-1368DR,8664,12124,15477,0.036,551
2019-07-17T12:21:17,42.805,6.029,CST-1368DR,8664,12120,15471,0.037,551
2019-07-17T12:24:19,42.805,6.029,CST-1368DR,8663,12119,15471,0.037,551
2019-07-17T12:27:21,42.805,6.029,CST-1368DR,8663,12116,15468,0.038,550
2019-07-17T12:30:22,42.805,6.029,CST-1368DR,8662,12121,15476,0.036,551
2019-07-17T12:33:24,42.805,6.029,CST-1368DR,8662,12119,15473,0.037,551
2019-07-17T12:36:26,42.805,6.029,CST-1368DR,8662,12119,15473,0.037,551
2019-07-17T12:39:27,42.805,6.029,CST-1368DR,8661,12119,15476,0.036,551
2019-07-17T12:42:29,42.805,6.029,CST-1368DR,8661,12113,15467,0.038,550
2019-07-17T12:45:30,42.805,6.029,CST-1368DR,8660,12114,15471,0.037,551
2019-07-17T12:48:32,42.805,6.029,CST-1368DR,8660,12118,15475,0.036,551
2019-07-17T12:51:34,42.805,6.029,CST-1368DR,8659,12114,15472,0.037,551
2019-07-17T12:54:35,42.805,6.029,CST-1368DR,8659,12112,15469,0.038,551
2019-07-17T12:57:37,42.805,6.029,CST-1368DR,8659,12115,15473,0.037,550
2019-07-17T13:00:39,42.805,6.029,CST-1368DR,8658,12115,15476,0.036,551
2019-07-17T13:03:40,42.805,6.029,CST-1368DR,8658,12112,15471,0.037,551
2019-07-17T13:06:42,42.805,6.029,CST-1368DR,8657,12113,15474,0.037,551
2019-07-17T13:09:43,42.805,6.029,CST-1368DR,8657,12110,15471,0.037,551
2019-07-17T13:12:45,42.805,6.029,CST-1368DR,8657,12111,15472,0.037,551
2019-07-17T13:15:47,42.805,6.029,CST-1368DR,8657,12113,15474,0.037,551
2019-07-17T13:18:48,42.805,6.029,CST-1368DR,8656,12113,15476,0.036,551
2019-07-17T13:21:50,42.805,6.029,CST-1368DR,8656,12110,15472,0.037,551
2019-07-17T13:24:52,42.805,6.029,CST-1368DR,8656,12110,15472,0.037,551
2019-07-17T13:27:53,42.805,6.029,CST-1368DR,8655,12109,15473,0.037,551
2019-07-17T13:30:55,42.805,6.029,CST-1368DR,8655,12110,15473,0.037,551
2019-07-17T13:33:56,42.805,6.029,CST-1368DR,8655,12109,15473,0.037,551
2019-07-17T13:36:58,42.805,6.029,CST-1368DR,8655,12108,15472,0.037,551
2019-07-17T13:40:00,42.805,6.029,CST-1368DR,8654,12107,15472,0.037,551
2019-07-17T13:43:02,42.805,6.029,CST-1368DR,8654,12109,15474,0.037,551
2019-07-17T13:46:03,42.805,6.029,CST-1368DR,8654,12107,15472,0.037,551
2019-07-17T13:49:05,42.805,6.029,CST-1368DR,8654,12108,15472,0.037,551
2019-07-17T13:52:06,42.805,6.029,CST-1368DR,8653,12106,15472,0.037,551
2019-07-17T13:55:08,42.805,6.029,CST-1368DR,8653,12105,15471,0.037,551
2019-07-17T13:58:10,42.805,6.029,CST-1368DR,8653,12106,15472,0.037,551
2019-07-17T14:01:11,42.805,6.029,CST-1368DR,8653,12104,15469,0.038,551
2019-07-17T14:04:13,42.805,6.029,CST-1368DR,8652,12093,15456,0.041,551
2019-07-17T14:07:15,42.805,6.029,CST-1368DR,8652,12105,15472,0.037,551
2019-07-17T14:10:16,42.805,6.029,CST-1368DR,8652,12105,15472,0.037,551
2019-07-17T14:13:18,42.805,6.029,CST-1368DR,8652,12103,15469,0.038,551
2019-07-17T14:16:19,42.805,6.029,CST-1368DR,8652,12102,15468,0.038,551
2019-07-17T14:19:21,42.805,6.029,CST-1368DR,8652,12104,15471,0.037,550
2019-07-17T14:22:23,42.805,6.029,CST-1368DR,8651,12102,15470,0.038,551
2019-07-17T14:25:24,42.805,6.029,CST-1368DR,8651,12102,15470,0.038,551
2019-07-17T14:28:26,42.805,6.029,CST-1368DR,8651,12104,15472,0.037,551
2019-07-17T14:31:28,42.805,6.029,CST-1368DR,8651,12100,15468,0.038,551
2019-07-17T14:34:29,42.805,6.029,CST-1368DR,8651,12101,15469,0.038,551
2019-07-17T14:37:31,42.805,6.029,CST-1368DR,8650,12102,15471,0.037,551
2019-07-17T14:40:32,42.805,6.029,CST-1368DR,8650,12096,15464,0.039,550
2019-07-17T14:43:34,42.805,6.029,CST-1368DR,8650,12100,15469,0.038,551
2019-07-17T14:46:36,42.805,6.029,CST-1368DR,8650,12102,15471,0.037,551
2019-07-17T14:49:37,42.805,6.029,CST-1368DR,8650,12101,15470,0.038,551
2019-07-17T14:52:39,42.805,6.029,CST-1368DR,8650,12101,15471,0.037,551
2019-07-17T14:55:41,42.805,6.029,CST-1368DR,8649,12098,15468,0.038,551
2019-07-17T14:58:42,42.805,6.029,CST-1368DR,8649,12102,15473,0.037,551
2019-07-17T15:01:44,42.805,6.029,CST-1368DR,8649,12099,15470,0.038,551
2019-07-17T15:04:46,42.805,6.029,CST-1368DR,8649,12100,15471,0.037,551
2019-07-17T15:07:48,42.805,6.029,CST-1368DR,8649,12100,15471,0.037,551
2019-07-17T15:10:49,42.805,6.029,CST-1368DR,8649,12100,15471,0.037,550
2019-07-17T15:13:51,42.805,6.029,CST-1368DR,8649,12097,15467,0.038,551
2019-07-17T15:16:52,42.805,6.029,CST-1368DR,8648,12096,15467,0.038,551
2019-07-17T15:19:54,42.805,6.029,CST-1368DR,8648,12099,15471,0.037,551
2019-07-17T15:22:56,42.805,6.029,CST-1368DR,8648,12100,15473,0.037,551
2019-07-17T15:25:57,42.805,6.029,CST-1368DR,8648,12093,15464,0.039,551
2019-07-17T15:28:59,42.805,6.029,CST-1368DR,8648,12098,15470,0.038,551
2019-07-17T15:32:01,42.805,6.029,CST-1368DR,8648,12098,15470,0.038,551
2019-07-17T15:35:02,42.805,6.029,CST-1368DR,8648,12097,15468,0.038,551
2019-07-17T15:38:04,42.805,6.029,CST-1368DR,8648,12099,15471,0.037,551
2019-07-17T15:41:06,42.805,6.029,CST-1368DR,8648,12098,15470,0.038,551
2019-07-17T15:44:07,42.805,6.029,CST-1368DR,8648,12097,15469,0.038,551
2019-07-17T15:47:09,42.805,6.029,CST-1368DR,8648,12100,15472,0.037,551
2019-07-17T15:50:11,42.805,6.029,CST-1368DR,8647,12096,15469,0.038,551
2019-07-17T15:53:12,42.805,6.029,CST-1368DR,8647,12098,15472,0.037,551
2019-07-17T15:56:14,42.805,6.029,CST-1368DR,8647,12098,15471,0.037,551
2019-07-17T15:59:16,42.805,6.029,CST-1368DR,8647,12092,15464,0.039,551
2019-07-17T16:02:17,42.805,6.029,CST-1368DR,8647,12095,15467,0.038,551
2019-07-17T16:05:19,42.805,6.029,CST-1368DR,8647,12095,15467,0.038,550
2019-07-17T16:08:21,42.805,6.029,CST-1368DR,8647,12097,15470,0.038,551
2019-07-17T16:11:22,42.805,6.029,CST-1368DR,8647,12098,15471,0.037,551
2019-07-17T16:14:24,42.805,6.029,CST-1368DR,8647,12093,15466,0.039,551
2019-07-17T16:17:25,42.805,6.029,CST-1368DR,8647,12096,15469,0.038,551
2019-07-17T16:20:27,42.805,6.029,CST-1368DR,8646,12097,15472,0.037,551
2019-07-17T16:23:29,42.805,6.029,CST-1368DR,8646,12094,15468,0.038,551
2019-07-17T16:26:30,42.805,6.029,CST-1368DR,8646,12096,15471,0.037,551
2019-07-17T16:29:32,42.805,6.029,CST-1368DR,8646,12095,15469,0.038,551
2019-07-17T16:32:34,42.805,6.029,CST-1368DR,8646,12095,15469,0.038,551
2019-07-17T16:35:35,42.805,6.029,CST-1368DR,8646,12095,15469,0.038,551
2019-07-17T16:38:37,42.805,6.029,CST-1368DR,8646,12096,15471,0.037,551
2019-07-17T16:41:39,42.805,6.029,CST-1368DR,8646,12096,15470,0.038,551
2019-07-17T16:44:40,42.805,6.029,CST-1368DR,8646,12089,15462,0.040,551
2019-07-17T16:47:42,42.805,6.029,CST-1368DR,8646,12092,15465,0.039,550
2019-07-17T16:50:43,42.805,6.029,CST-1368DR,8645,12093,15469,0.038,551
2019-07-17T16:53:45,42.805,6.029,CST-1368DR,8645,12090,15465,0.039,551
2019-07-17T16:56:47,42.805,6.029,CST-1368DR,8645,12092,15467,0.038,550
2019-07-17T16:59:48,42.805,6.029,CST-1368DR,8645,12095,15471,0.037,551
2019-07-17T17:02:50,42.805,6.029,CST-1368DR,8645,12096,15472,0.037,551
2019-07-17T17:05:52,42.805,6.029,CST-1368DR,8645,12094,15470,0.038,551
2019-07-17T17:08:53,42.805,6.029,CST-1368DR,8645,12095,15470,0.038,551
2019-07-17T17:11:55,42.805,6.029,CST-1368DR,8645,12096,15472,0.037,551
2019-07-17T17:14:56,42.805,6.029,CST-1368DR,8645,12095,15471,0.037,551
2019-07-17T17:17:58,42.805,6.029,CST-1368DR,8645,12093,15468,0.038,551
2019-07-17T17:21:00,42.805,6.029,CST-1368DR,8645,12095,15471,0.037,551
2019-07-17T17:24:01,42.805,6.029,CST-1368DR,8645,12095,15470,0.038,551
2019-07-17T17:27:03,42.805,6.029,CST-1368DR,8645,12095,15470,0.038,551
2019-07-17T17:30:05,42.805,6.029,CST-1368DR,8645,12093,15468,0.038,551
2019-07-17T17:33:06,42.805,6.029,CST-1368DR,8644,12090,15466,0.039,551
2019-07-17T17:36:08,42.805,6.029,CST-1368DR,8644,12085,15460,0.040,551
2019-07-17T17:39:10,42.805,6.029,CST-1368DR,8644,12093,15470,0.038,551
2019-07-17T17:42:11,42.805,6.029,CST-1368DR,8644,12093,15470,0.038,551
2019-07-17T17:45:13,42.805,6.029,CST-1368DR,8644,12094,15471,0.037,551
2019-07-17T17:48:14,42.805,6.029,CST-1368DR,8644,12092,15469,0.038,551
2019-07-17T17:51:16,42.805,6.029,CST-1368DR,8644,12095,15472,0.037,551
2019-07-17T17:54:18,42.805,6.029,CST-1368DR,8644,12094,15471,0.037,551
2019-07-17T17:57:19,42.805,6.029,CST-1368DR,8644,12091,15468,0.038,551
2019-07-17T18:00:21,42.805,6.029,CST-1368DR,8644,12094,15471,0.037,551
2019-07-17T18:03:23,42.805,6.029,CST-1368DR,8644,12094,15471,0.037,551
2019-07-17T18:06:24,42.805,6.029,CST-1368DR,8644,12093,15470,0.038,551
2019-07-17T18:09:26,42.805,6.029,CST-1368DR,8644,12095,15472,0.037,551
2019-07-17T18:12:28,42.805,6.029,CST-1368DR,8643,12091,15469,0.038,551
2019-07-17T18:15:29,42.805,6.029,CST-1368DR,8643,12095,15474,0.037,550
2019-07-17T18:18:31,42.805,6.029,CST-1368DR,8643,12089,15467,0.038,551
2019-07-17T18:21:33,42.805,6.029,CST-1368DR,8643,12093,15472,0.037,551
2019-07-17T18:24:34,42.805,6.029,CST-1368DR,8643,12064,15435,0.047,551
2019-07-17T18:27:36,42.805,6.029,CST-1368DR,8643,12092,15470,0.038,551
2019-07-17T18:30:38,42.805,6.029,CST-1368DR,8643,12094,15472,0.037,551
2019-07-17T18:33:39,42.805,6.029,CST-1368DR,8643,12094,15472,0.037,551
2019-07-17T18:36:41,42.805,6.029,CST-1368DR,8643,12093,15472,0.037,551
2019-07-17T18:39:43,42.805,6.029,CST-1368DR,8643,12092,15470,0.038,551
2019-07-17T18:42:44,42.805,6.029,CST-1368DR,8643,12093,15472,0.037,551
2019-07-17T18:45:46,42.805,6.029,CST-1368DR,8643,12090,15467,0.038,551
2019-07-17T18:48:48,42.805,6.029,CST-1368DR,8643,12093,15471,0.037,551
2019-07-17T18:51:49,42.805,6.029,CST-1368DR,8643,12093,15471,0.037,551
2019-07-17T18:54:51,42.805,6.029,CST-1368DR,8643,12093,15472,0.037,551
2019-07-17T18:57:53,42.805,6.029,CST-1368DR,8642,12092,15472,0.037,551
2019-07-17T19:00:54,42.805,6.029,CST-1368DR,8642,12092,15472,0.037,551
2019-07-17T19:03:56,42.805,6.029,CST-1368DR,8642,12089,15469,0.038,551
2019-07-17T19:06:58,42.805,6.029,CST-1368DR,8642,12093,15473,0.037,551
2019-07-17T19:09:59,42.805,6.029,CST-1368DR,8642,12091,15471,0.037,551
2019-07-17T19:13:01,42.805,6.029,CST-1368DR,8642,12088,15467,0.038,551
2019-07-17T19:16:03,42.805,6.029,CST-1368DR,8642,12091,15471,0.037,551
2019-07-17T19:19:04,42.805,6.029,CST-1368DR,8642,12086,15464,0.039,551
2019-07-17T19:22:06,42.805,6.029,CST-1368DR,8642,12090,15469,0.038,550
2019-07-17T19:25:08,42.805,6.029,CST-1368DR,8642,12085,15463,0.039,551
2019-07-17T19:28:09,42.805,6.029,CST-1368DR,8642,12088,15467,0.038,551
2019-07-17T19:31:11,42.805,6.029,CST-1368DR,8642,12086,15465,0.039,550
2019-07-17T19:34:13,42.805,6.029,CST-1368DR,8642,12091,15471,0.037,551
2019-07-17T19:37:14,42.805,6.029,CST-1368DR,8641,12091,15472,0.037,551
2019-07-17T19:40:16,42.805,6.029,CST-1368DR,8641,12091,15472,0.037,551
2019-07-17T19:43:18,42.805,6.029,CST-1368DR,8641,12091,15473,0.037,551
2019-07-17T19:46:19,42.805,6.029,CST-1368DR,8641,12088,15468,0.038,551
2019-07-17T19:49:21,42.805,6.029,CST-1368DR,8641,12090,15472,0.037,551
2019-07-17T19:52:23,42.805,6.029,CST-1368DR,8641,12090,15472,0.037,550
2019-07-17T19:55:24,42.805,6.029,CST-1368DR,8641,12088,15469,0.038,551
2019-07-17T19:58:26,42.805,6.029,CST-1368DR,8641,12087,15467,0.038,550
2019-07-17T20:01:28,42.805,6.029,CST-1368DR,8641,12088,15469,0.038,551
2019-07-17T20:04:29,42.805,6.029,CST-1368DR,8641,12085,15464,0.039,551
2019-07-17T20:07:31,42.805,6.029,CST-1368DR,8641,12090,15471,0.037,551
2019-07-17T20:10:33,42.805,6.029,CST-1368DR,8641,12084,15464,0.039,551
2019-07-17T20:13:34,42.805,6.029,CST-1368DR,8641,12080,15459,0.040,551
2019-07-17T20:16:36,42.805,6.029,CST-1368DR,8641,12086,15466,0.039,551
2019-07-17T20:19:38,42.805,6.029,CST-1368DR,8641,12090,15471,0.037,551
2019-07-17T20:22:39,42.805,6.029,CST-1368DR,8641,12090,15471,0.037,551
2019-07-17T20:25:41,42.805,6.029,CST-1368DR,8641,12089,15470,0.038,551
2019-07-17T20:28:43,42.805,6.029,CST-1368DR,8641,12089,15470,0.038,551
2019-07-17T20:31:44,42.805,6.029,CST-1368DR,8641,12090,15471,0.037,551
2019-07-17T20:34:46,42.805,6.029,CST-1368DR,8641,12089,15470,0.038,551
2019-07-17T20:37:48,42.805,6.029,CST-1368DR,8641,12088,15468,0.038,551
2019-07-17T20:40:49,42.805,6.029,CST-1368DR,8641,12090,15471,0.037,551
2019-07-17T20:43:51,42.805,6.029,CST-1368DR,8640,12088,15470,0.038,551
2019-07-17T20:46:53,42.805,6.029,CST-1368DR,8640,12083,15464,0.039,550
2019-07-17T20:49:54,42.805,6.029,CST-1368DR,8640,12087,15469,0.038,551
2019-07-17T20:52:56,42.805,6.029,CST-1368DR,8640,12091,15474,0.037,551
2019-07-17T20:55:58,42.805,6.029,CST-1368DR,8640,12089,15472,0.037,551
2019-07-17T20:58:59,42.805,6.029,CST-1368DR,8640,12089,15472,0.037,551
2019-07-17T21:02:01,42.805,6.029,CST-1368DR,8640,12086,15467,0.038,551
2019-07-17T21:05:03,42.805,6.029,CST-1368DR,8640,12088,15470,0.038,551
2019-07-17T21:08:04,42.805,6.029,CST-1368DR,8640,12089,15472,0.037,551
2019-07-17T21:11:06,42.805,6.029,CST-1368DR,8640,12090,15473,0.037,551
2019-07-17T21:14:08,42.805,6.029,CST-1368DR,8640,12089,15471,0.037,551
2019-07-17T21:17:09,42.805,6.029,CST-1368DR,8640,12088,15470,0.038,551
2019-07-17T21:20:11,42.805,6.029,CST-1368DR,8640,12085,15466,0.039,551
2019-07-17T21:23:13,42.805,6.029,CST-1368DR,8640,12088,15470,0.038,551
2019-07-17T21:26:14,42.805,6.029,CST-1368DR,8640,12090,15473,0.037,551
2019-07-17T21:29:16,42.805,6.029,CST-1368DR,8640,12087,15468,0.038,551
2019-07-17T21:32:18,42.805,6.029,CST-1368DR,8640,12088,15470,0.038,551
2019-07-17T21:35:19,42.805,6.029,CST-1368DR,8640,12088,15471,0.037,550
2019-07-17T21:38:21,42.805,6.029,CST-1368DR,8640,12087,15469,0.038,551
2019-07-17T21:41:23,42.805,6.029,CST-1368DR,8639,12087,15470,0.038,550
2019-07-17T21:44:24,42.805,6.029,CST-1368DR,8639,12077,15457,0.041,551
2019-07-17T21:47:26,42.805,6.029,CST-1368DR,8639,12080,15461,0.040,551
2019-07-17T21:50:28,42.805,6.029,CST-1368DR,8639,12087,15471,0.037,550
2019-07-17T21:53:29,42.805,6.029,CST-1368DR,8639,12087,15470,0.038,551
2019-07-17T21:56:31,42.805,6.029,CST-1368DR,8639,12087,15471,0.037,551
2019-07-17T21:59:33,42.805,6.029,CST-1368DR,8639,12085,15468,0.038,550
2019-07-17T22:02:34,42.805,6.029,CST-1368DR,8639,12083,15465,0.039,551
2019-07-17T22:05:36,42.805,6.029,CST-1368DR,8639,12075,15456,0.041,551
2019-07-17T22:08:38,42.805,6.029,CST-1368DR,8639,12079,15460,0.040,551
2019-07-17T22:11:39,42.805,6.029,CST-1368DR,8639,12084,15466,0.039,550
2019-07-17T22:14:41,42.805,6.029,CST-1368DR,8639,12085,15468,0.038,551
2019-07-17T22:17:43,42.805,6.029,CST-1368DR,8639,12083,15465,0.039,551
2019-07-17T22:20:44,42.805,6.029,CST-1368DR,8639,12085,15468,0.038,551
2019-07-17T22:23:46,42.805,6.029,CST-1368DR,8639,12087,15471,0.037,551
2019-07-17T22:26:48,42.805,6.029,CST-1368DR,8639,12086,15469,0.038,551
2019-07-17T22:29:49,42.805,6.029,CST-1368DR,8639,12086,15470,0.038,551
2019-07-17T22:32:51,42.805,6.029,CST-1368DR,8639,12080,15462,0.040,551
2019-07-17T22:35:53,42.805,6.029,CST-1368DR,8639,12085,15468,0.038,551
2019-07-17T22:38:54,42.805,6.029,CST-1368DR,8639,12086,15469,0.038,551
2019-07-17T22:41:56,42.805,6.029,CST-1368DR,8638,12087,15472,0.037,551
2019-07-17T22:44:58,42.805,6.029,CST-1368DR,8638,12087,15472,0.037,551
2019-07-17T22:47:59,42.805,6.029,CST-1368DR,8638,12083,15467,0.038,551
2019-07-17T22:51:01,42.805,6.029,CST-1368DR,8638,12083,15467,0.038,551
2019-07-17T22:54:03,42.805,6.029,CST-1368DR,8638,12086,15471,0.037,551
2019-07-17T22:57:04,42.805,6.029,CST-1368DR,8638,12086,15470,0.038,551
2019-07-17T23:00:06,42.805,6.029,CST-1368DR,8638,12085,15469,0.038,551
2019-07-17T23:03:07,42.805,6.029,CST-1368DR,8638,12086,15471,0.037,551
2019-07-17T23:06:09,42.805,6.029,CST-1368DR,8638,12086,15471,0.037,550
2019-07-17T23:09:11,42.805,6.029,CST-1368DR,8638,12084,15468,0.038,551
2019-07-17T23:12:12,42.805,6.029,CST-1368DR,8638,12086,15471,0.037,550
2019-07-17T23:15:14,42.805,6.029,CST-1368DR,8638,12076,15458,0.041,550
2019-07-17T23:18:16,42.805,6.029,CST-1368DR,8638,12081,15465,0.039,550
2019-07-17T23:21:17,42.805,6.029,CST-1368DR,8638,12082,15466,0.039,551
2019-07-17T23:24:19,42.805,6.029,CST-1368DR,8638,12083,15467,0.038,551
2019-07-17T23:27:20,42.805,6.029,CST-1368DR,8638,12080,15463,0.039,551
2019-07-17T23:30:22,42.805,6.029,CST-1368DR,8638,12085,15469,0.038,551
2019-07-17T23:33:24,42.805,6.029,CST-1368DR,8638,12084,15468,0.038,551
2019-07-17T23:36:25,42.805,6.029,CST-1368DR,8638,12085,15470,0.038,551
2019-07-17T23:39:27,42.805,6.029,CST-1368DR,8638,12086,15471,0.037,551
2019-07-17T23:42:29,42.805,6.029,CST-1368DR,8638,12084,15468,0.038,551
2019-07-17T23:45:30,42.805,6.029,CST-1368DR,8638,12083,15467,0.038,551
2019-07-17T23:48:32,42.805,6.029,CST-1368DR,8638,12084,15469,0.038,551
2019-07-17T23:51:34,42.805,6.029,CST-1368DR,8638,12083,15468,0.038,551
2019-07-17T23:54:35,42.805,6.029,CST-1368DR,8638,12084,15469,0.038,551
2019-07-17T23:57:37,42.805,6.029,CST-1368DR,8637,12083,15469,0.038,550
